Voltar ao catálogo

STARLINK-5503

AtivoComunicaçõesVLEO
NORAD 57257·PAYLOAD·🇺🇸 United States

Lançado Jul 7, 2023 de Vandenberg Space Force Base

Loading…

Próximas Passagens (próximas 24 horas)

TLE

AtualizadoSource: CelesTrak SupGP

Época: Sep 14, 2026, 21:07 UTC

1 57257C 23094AR  26257.88034722  .00042887  00000+0  15533-2 0  2574
2 57257  43.0025  31.4221 0001369 271.2626 116.9189 15.27559730    10

Acompanhe STARLINK-5503 em tempo real com AllMySat

Download on the App Store